Regional Weather Roundup
Issued by NWS

Home | Current Version | Previous Version | Graphics & Text | Print | Product List | Glossary On
Versions: 1 2 3 4 5 6 7 8 9 10 11 12 13 14 15 16 17 18 19 20 21 22 23 24 25 26 27 28 29 30 31 32 33 34 35 36 37 38 39 40 41 42 43 44 45 46 47 48 49 50
000
ASUS45 KSLC 241910
RWRUT

UTAH REGIONAL WEATHER ROUNDUP
NATIONAL WEATHER SERVICE SALT LAKE CITY UT
100 PM MDT FRI APR 24 2015

UTZ001>011-023>025-242000-

NORTHERN UTAH

CITY           SKY/WX    TMP DP  RH WIND       PRES   REMARKS
BRIGHAM CITY   PTSUNNY   64  30  27 S14G23    29.69F
HILL AFB       PTSUNNY   61  33  34 SW10G24   29.70F
LOGAN          PTSUNNY   61  34  36 S14G23    29.68F
OGDEN          PTSUNNY   65  32  29 SW13G20   29.69F
PROVO AIRPORT  PTSUNNY   61  34  36 CALM      29.72F
SALT LAKE CITY LGT RAIN  64  34  32 SE13G18   29.68F
VERNAL         MOSUNNY   62  30  29 VRB6      29.71F
WENDOVER       CLOUDY    64  36  34 W20       29.68S
HEBER CITY     MOSUNNY   63  28  27 SW21G26   29.73F
WEST JORDAN    SUNNY     64  36  34 S17       29.70F

$$

UTZ012>022-026-027-242000-

SOUTHERN/CENTRAL UTAH

CITY           SKY/WX    TMP DP  RH WIND       PRES   REMARKS
BLANDING       PTSUNNY   58  26  30 W14G23    29.89F
BRYCE CANYON   CLOUDY    47  29  49 NW16      29.90S
CEDAR CITY     MOSUNNY   61  27  27 S22G29    29.82F
DELTA          PTSUNNY   65  30  27 SW21G30   29.72F
HANKSVILLE     MOSUNNY   70  21  16 S10G16    29.74F
MILFORD        MOSUNNY   63  29  27 S22G31    29.77F
MOAB/CYNLANDS  SUNNY     69  20  15 W10G18    29.70F
PRICE          CLOUDY    60  23  24 SW10G23   29.76S
ST GEORGE      PTCLDY    70  34  26 W6        29.82F
KANAB          PTSUNNY   57  32  38 W20G25    29.91S

$$

REGIONAL REPORTS     COLORADO/ARIZONA

CITY           SKY/WX    TMP DP  RH WIND       PRES   REMARKS
CRAIG, CO      PTSUNNY   57  29  34 W6        29.73F
GRAND JUNCTION MOSUNNY   65  30  27 S12G20    29.73F
RIFLE          CLOUDY    61  27  27 SE14      29.73F
MONTROSE       LGT RAIN  55  30  38 W15G23    29.81R
CORTEZ         CLOUDY    56  24  29 W12       29.84F
PAGE, AZ       LGT RAIN  65  29  25 VRB6      29.82F
GRAND CANYON   PTSUNNY   54  32  43 S18G32    29.95F
KINGMAN        NOT AVBL
FLAGSTAFF      LGT RAIN  41  38  89 SW14G25   30.00R

$$

REGIONAL REPORTS    NEVADA/IDAHO/WYOMING

CITY           SKY/WX    TMP DP  RH WIND       PRES   REMARKS
LAS VEGAS, NV  MOSUNNY   74  39  28 S22G33    29.75F
ELY            PTSUNNY   50  38  63 N3        29.82F
ELKO           CLOUDY    50  38  63 S12G18    29.76F
POCATELLO, ID  MOSUNNY   58  40  51 W17       29.70F
BURLEY         CLOUDY    47  36  65 W16G28    29.73R
EVANSTON, WY   PTSUNNY   48  33  56 SW15      29.75F
ROCK SPRINGS   MOSUNNY   57  28  33 W15G24    29.72F
KEMMERER       PTSUNNY   52  32  46 SW14G23   29.76F

$$



USA.gov is the U.S. government's official web portal to all federal, state and local government web resources and services.